LKPR Weather Reports


Display with metric or nautical units.
time (UTC)temp
F
wind
direction
speed
MPH
gust
MPH
rain 1hr
in
rain 24hr
in
rain mn
in
humidity
%
barometer
mb
20260905230203 57 280 9.0 0.0 0.00 0.00 0.00 67 1024.0
20260905223202 57 270 8.0 0.0 0.00 0.00 0.00 62 1024.0
20260905222204 57 280 7.0 0.0 0.00 0.00 0.00 62
20260905220203 57 270 7.0 0.0 0.00 0.00 0.00 62 1024.0
20260905213202 59 270 9.0 0.0 0.00 0.00 0.00 58 1023.0
20260905211800 59 260 9.0 0.0 0.00 0.00 0.00 58
20260905210202 59 270 8.0 0.0 0.00 0.00 0.00 58 1023.0
20260905210002 61 250 9.0 0.0 0.00 0.00 0.00 55 1023.0
20260905205102 61 250 9.0 0.0 0.00 0.00 0.00 55 1023.0
20260905204702 61 250 9.0 0.0 0.00 0.00 0.00 55 1023.0
20260905204102 61 250 9.0 0.0 0.00 0.00 0.00 55 1023.0
20260905203203 61 250 9.0 0.0 0.00 0.00 0.00 55 1023.0
20260905201802 61 260 9.0 0.0 0.00 0.00 0.00 55
20260905200903 61 240 9.0 0.0 0.00 0.00 0.00 55 1022.0
20260905200303 61 240 9.0 0.0 0.00 0.00 0.00 55 1022.0
20260905195903 61 260 9.0 0.0 0.00 0.00 0.00 55 1022.0
20260905195203 61 260 9.0 0.0 0.00 0.00 0.00 55 1022.0
20260905194103 61 260 9.0 0.0 0.00 0.00 0.00 55 1022.0
20260905193409 61 260 9.0 0.0 0.00 0.00 0.00 55 1022.0
20260905193203 61 260 9.0 0.0 0.00 0.00 0.00 55 1022.0
20260905192703 63 270 10.0 0.0 0.00 0.00 0.00 55 1022.0
20260905192110 63 270 9.0 0.0 0.00 0.00 0.00 51
20260905192103 63 270 10.0 0.0 0.00 0.00 0.00 55 1022.0
20260905191603 63 270 10.0 0.0 0.00 0.00 0.00 55 1022.0
20260905181819 64 290 9.0 0.0 0.00 0.00 0.00 48
20260905181302 64 280 9.0 0.0 0.00 0.00 0.00 48 1021.0
20260905181102 64 280 9.0 0.0 0.00 0.00 0.00 48 1021.0
20260905180703 64 280 9.0 0.0 0.00 0.00 0.00 48 1021.0
20260905180303 64 280 9.0 0.0 0.00 0.00 0.00 48 1021.0
20260905180103 66 290 10.0 0.0 0.00 0.00 0.00 45 1021.0
20260905175403 66 290 10.0 0.0 0.00 0.00 0.00 45 1021.0
20260905175203 66 290 10.0 0.0 0.00 0.00 0.00 45 1021.0
20260905174702 66 290 10.0 0.0 0.00 0.00 0.00 45 1021.0
20260905174103 66 290 10.0 0.0 0.00 0.00 0.00 45 1021.0
20260905173410 66 290 10.0 0.0 0.00 0.00 0.00 45 1021.0
20260905172703 68 300 14.0 0.0 0.00 0.00 0.00 42 1020.0
20260905172103 68 300 14.0 0.0 0.00 0.00 0.00 42 1020.0
20260905171819 68 310 12.0 0.0 0.00 0.00 0.00 42
20260905171503 68 300 14.0 0.0 0.00 0.00 0.00 42 1020.0
20260905170503 68 300 14.0 0.0 0.00 0.00 0.00 42 1020.0
20260905170203 68 300 14.0 0.0 0.00 0.00 0.00 42 1020.0
20260905163803 70 300 14.0 0.0 0.00 0.00 0.00 43 1020.0
20260905163202 70 300 14.0 0.0 0.00 0.00 0.00 43 1020.0
20260905162902 70 310 14.0 0.0 0.00 0.00 0.00 43 1020.0
20260905162217 70 320 14.0 0.0 0.00 0.00 0.00 43
20260905162203 70 310 14.0 0.0 0.00 0.00 0.00 43 1020.0
20260905161603 70 310 14.0 0.0 0.00 0.00 0.00 43 1020.0
20260905161103 70 310 14.0 0.0 0.00 0.00 0.00 43 1020.0
20260905160803 70 310 14.0 0.0 0.00 0.00 0.00 43 1020.0
20260905160302 70 310 14.0 0.0 0.00 0.00 0.00 43 1020.0
20260905154703 70 310 14.0 0.0 0.00 0.00 0.00 43 1019.0
20260905154503 70 310 14.0 0.0 0.00 0.00 0.00 43 1019.0
20260905154203 70 310 14.0 0.0 0.00 0.00 0.00 43 1019.0
20260905151807 72 300 16.0 28.0 0.00 0.00 0.00 40 1019.0
20260905151710 72 290 18.0 0.0 0.00 0.00 0.00 37
20260905151104 72 300 16.0 28.0 0.00 0.00 0.00 40 1019.0
20260905150602 72 300 16.0 28.0 0.00 0.00 0.00 40 1019.0
20260905145902 72 270 21.0 32.0 0.00 0.00 0.00 37 1019.0
20260905145603 72 270 21.0 32.0 0.00 0.00 0.00 37 1019.0
20260905145102 72 270 21.0 32.0 0.00 0.00 0.00 37 1019.0
20260905144202 72 270 18.0 0.0 0.00 0.00 0.00 37 1019.0
20260905143703 72 270 18.0 0.0 0.00 0.00 0.00 37 1019.0
20260905142102 72 280 20.0 0.0 0.00 0.00 0.00 37 1019.0
20260905141711 72 290 16.0 0.0 0.00 0.00 0.00 37
20260905140408 72 280 20.0 0.0 0.00 0.00 0.00 37 1019.0
20260905140103 70 280 17.0 0.0 0.00 0.00 0.00 43 1019.0
20260905135004 70 280 17.0 0.0 0.00 0.00 0.00 43 1019.0
20260905134602 70 280 17.0 0.0 0.00 0.00 0.00 43 1019.0
20260905134203 70 280 17.0 0.0 0.00 0.00 0.00 43 1019.0
20260905133803 70 280 17.0 0.0 0.00 0.00 0.00 43 1019.0
20260905133409 70 280 17.0 0.0 0.00 0.00 0.00 43 1019.0
20260905133213 70 280 17.0 0.0 0.00 0.00 0.00 43 1019.0
20260905133102 72 280 20.0 0.0 0.00 0.00 0.00 43 1019.0
20260905132205 72 280 20.0 0.0 0.00 0.00 0.00 43 1019.0
20260905132002 72 270 16.0 0.0 0.00 0.00 0.00 40
20260905131602 72 280 20.0 0.0 0.00 0.00 0.00 43 1019.0
20260905131103 72 280 20.0 0.0 0.00 0.00 0.00 43 1019.0
20260905130703 72 280 20.0 0.0 0.00 0.00 0.00 43 1019.0
20260905130203 72 280 20.0 0.0 0.00 0.00 0.00 43 1019.0
20260905125602 70 260 17.0 0.0 0.00 0.00 0.00 43 1019.0
20260905125403 70 260 17.0 0.0 0.00 0.00 0.00 43 1019.0
20260905125203 70 260 17.0 0.0 0.00 0.00 0.00 43 1019.0
20260905124902 70 260 17.0 0.0 0.00 0.00 0.00 43 1019.0
20260905124503 70 260 17.0 0.0 0.00 0.00 0.00 43 1019.0
20260905124003 70 260 17.0 0.0 0.00 0.00 0.00 43 1019.0
20260905123603 70 260 17.0 0.0 0.00 0.00 0.00 43 1019.0
20260905123302 70 260 17.0 0.0 0.00 0.00 0.00 43 1019.0
20260905123103 70 280 16.0 0.0 0.00 0.00 0.00 43 1019.0
20260905122103 70 280 16.0 0.0 0.00 0.00 0.00 43 1019.0
20260905121913 70 280 18.0 0.0 0.00 0.00 0.00 43
20260905121707 70 280 16.0 0.0 0.00 0.00 0.00 43 1019.0
20260905121102 70 280 16.0 0.0 0.00 0.00 0.00 43 1019.0
20260905120504 70 280 16.0 0.0 0.00 0.00 0.00 43 1019.0
20260905115802 68 270 18.0 0.0 0.00 0.00 0.00 49 1020.0
20260905114002 68 270 18.0 0.0 0.00 0.00 0.00 49 1020.0
20260905113202 68 270 18.0 0.0 0.00 0.00 0.00 49 1020.0
20260905112702 68 260 20.0 0.0 0.00 0.00 0.00 45 1020.0
20260905112202 68 260 20.0 0.0 0.00 0.00 0.00 45 1020.0
20260905111810 68 270 18.0 0.0 0.00 0.00 0.00 45
20260905111803 68 260 20.0 0.0 0.00 0.00 0.00 45 1020.0
20260905110201 68 260 20.0 0.0 0.00 0.00 0.00 45 1020.0
20260905105202 68 260 18.0 0.0 0.00 0.00 0.00 52 1019.0
20260905105003 68 260 18.0 0.0 0.00 0.00 0.00 52 1019.0
20260905104603 68 260 18.0 0.0 0.00 0.00 0.00 52 1019.0
20260905104303 68 260 18.0 0.0 0.00 0.00 0.00 52 1019.0
20260905103203 68 260 18.0 0.0 0.00 0.00 0.00 52 1019.0
20260905102803 64 260 17.0 0.0 0.00 0.00 0.00 59 1019.0
20260905102223 66 270 16.0 0.0 0.00 0.00 0.00 52
20260905101902 64 260 17.0 0.0 0.00 0.00 0.00 59 1019.0
20260905101403 64 260 17.0 0.0 0.00 0.00 0.00 59 1019.0
20260905100803 64 260 17.0 0.0 0.00 0.00 0.00 59 1019.0
20260905100302 64 260 17.0 0.0 0.00 0.00 0.00 59 1019.0
20260905095203 64 250 15.0 0.0 0.00 0.00 0.00 67 1020.0
20260905094803 64 250 15.0 0.0 0.00 0.00 0.00 67 1020.0
20260905094202 64 250 15.0 0.0 0.00 0.00 0.00 67 1020.0
20260905093703 64 250 15.0 0.0 0.00 0.00 0.00 67 1020.0
20260905092403 64 260 15.0 0.0 0.00 0.00 0.00 67 1020.0
20260905091908 64 260 15.0 0.0 0.00 0.00 0.00 67 1020.0
20260905091813 64 260 14.0 0.0 0.00 0.00 0.00 63
20260905090803 64 260 15.0 0.0 0.00 0.00 0.00 67 1020.0
20260905090202 64 260 15.0 0.0 0.00 0.00 0.00 67 1020.0
20260905084202 63 250 15.0 0.0 0.00 0.00 0.00 77 1020.0
20260905083203 63 250 15.0 0.0 0.00 0.00 0.00 77 1020.0
20260905081805 61 250 14.0 0.0 0.00 0.00 0.00 77
20260905080203 61 240 17.0 0.0 0.00 0.00 0.00 77 1019.0
20260905073202 61 240 18.0 0.0 0.00 0.00 0.00 77 1019.0
20260905072107 59 240 18.0 0.0 0.00 0.00 0.00 82
20260905070203 59 240 20.0 0.0 0.00 0.00 0.00 82 1019.0
20260905063203 59 240 17.0 0.0 0.00 0.00 0.00 82 1019.0
20260905061806 57 240 16.0 0.0 0.00 0.00 0.00 87
20260905060202 57 240 16.0 0.0 0.00 0.00 0.00 87 1019.0
20260905053202 57 230 12.0 0.0 0.00 0.00 0.00 87 1018.0
20260905051806 55 250 7.0 0.0 0.00 0.00 0.00 93
20260905050203 55 250 8.0 0.0 0.00 0.00 0.00 93 1018.0
20260905043202 57 250 10.0 0.0 0.00 0.00 0.00 87 1017.0
20260905042210 57 210 18.0 0.0 0.00 0.00 0.00 82
20260905040202 57 210 15.0 0.0 0.00 0.00 0.00 87 1016.0
20260905033203 57 220 13.0 0.0 0.00 0.00 0.00 87 1017.0
20260905032207 57 240 13.0 0.0 0.00 0.00 0.00 87 1017.0
20260905031806 59 240 14.0 0.0 0.00 0.00 0.00 77
20260905030203 59 240 16.0 0.0 0.00 0.00 0.00 77 1017.0
20260905024003 61 260 14.0 0.0 0.00 0.00 0.00 67 1017.0
20260905023203 59 260 14.0 0.0 0.00 0.00 0.00 72 1017.0
20260905021805 59 250 12.0 0.0 0.00 0.00 0.00 72
20260905020203 59 250 13.0 0.0 0.00 0.00 0.00 77 1016.0
20260905013202 61 270 9.0 0.0 0.00 0.00 0.00 67 1016.0
20260905012107 63 290 14.0 0.0 0.00 0.00 0.00 59
20260905010703 63 280 15.0 0.0 0.00 0.00 0.00 59 1015.0
20260905010203 64 280 14.0 25.0 0.00 0.00 0.00 59 1015.0
20260905003203 63 290 10.0 0.0 0.00 0.00 0.00 67 1015.0
20260905001819 64 310 16.0 0.0 0.00 0.00 0.00 59
20260905000204 64 300 14.0 30.0 0.00 0.00 0.00 63 1015.0
20260904233202 64 320 18.0 30.0 0.00 0.00 0.00 67 1015.0
20260904231851 63 350 14.0 0.0 0.00 0.00 0.00 72